Location: B�di�
(14.6834°N, 3.1047°W)
Time: 04:44:09
(UTC+00:00)

NOAA 12 - Pass Details

Date: 24 January 2020
Orbit: 796 x 814 km, 98.5° (Epoch: 17 February)

Event Time Altitude Azimuth Distance (km) Brightness Sun altitude
Rises 18:15:46 0° 166° (SSE) 3,290 7.4 -2.8°
Reaches altitude 10° 18:18:05 10° 166° (SSE) 2,360 6.6 -3.3°
Maximum altitude 18:23:18 87° 77° (ENE) 800 4.1 -4.5°
Drops below altitude 10° 18:28:31 10° 349° (N) 2,361 6.5 -5.7°
Sets 18:30:51 0° 349° (N) 3,292 7.2 -6.2°
